Huntington, WV

1:13 AM EST on December 10, 2019 (GMT -0500)
Tri-State / Ferguson

Weather History for KHTS - October, 2019

Change the Weather History Date:

Tuesday, October 15, 2019

  Actual Average Record
Temperature  
Mean Temperature 58 °F 57 °F  
Max Temperature 77 °F 68 °F 85 °F (1956)
Min Temperature 39 °F 45 °F 28 °F (1937)
Degree Days  
Heating Degree Days 7 9  
Month to date heating degree days 104  
Since 1 July heating degree days 162  
Cooling Degree Days 0 0  
Month to date cooling degree days 16  
Year to date cooling degree days 1127  
Growing Degree Days 8 (Base 50)    
Moisture  
Dew Point 44 °F    
Average Humidity 62    
Maximum Humidity 93    
Minimum Humidity 20    
Precipitation  
Precipitation 0.00 in 0.08 in 1.10 in (1919)
Month to date precipitation 1.31  
Year to date precipitation 34.34  
Snow  
Snow 0.00 in 0.00 in 0.00 in (2016)
Month to date snowfall 0.0  
Since 1 September snowfall 0.0  
Snow Depth -    
Sea Level Pressure  
Sea Level Pressure 30.01 in    
Wind  
Wind Speed 3 mph (SSE)    
Max Wind Speed 10 mph    
Max Gust Speed -    
Visibility 10 miles    
Events      
T = Trace of Precipitation, MM = Missing Value Source: NWS Daily Summary

Daily Weather History Graph

Daily Weather History Graph

Search for Another Location

Airport or City:

Astronomy

Oct. 15, 2019 Rise Set
Actual Time 7:38 AM EDT 6:52 PM EDT
Civil Twilight 7:12 AM EDT 7:19 PM EDT
Nautical Twilight 6:41 AM EDT 7:49 PM EDT
Astronomical Twilight 6:10 AM EDT 8:20 PM EDT
Moon 8:12 PM EDT (10/15) 9:07 AM EDT (10/15)
Length of Visible Light 12h 06m
Length of Day
11h 13m
Full, 97% of the Moon is Illuminated
Oct 15
Full
Oct 21
Last Quarter
Oct 27
New
Nov 4
First Quarter
Nov 12
Full

Hourly Weather History & Observations

Time (EDT) Temp. Windchill Dew Point Humidity Pressure Visibility Wind Dir Wind Speed Gust Speed Precip Events Conditions
12:51 AM 46.0 °F - 42.1 °F 86% 30.12 in 10.0 mi Calm Calm - N/A   Clear
1:51 AM 45.0 °F 43.5 °F 42.1 °F 90% 30.12 in 10.0 mi East 3.5 mph - N/A   Clear
2:51 AM 45.0 °F 43.5 °F 42.1 °F 90% 30.12 in 10.0 mi East 3.5 mph - N/A   Clear
3:51 AM 43.0 °F 41.3 °F 39.9 °F 89% 30.11 in 10.0 mi ENE 3.5 mph - N/A   Clear
4:51 AM 41.0 °F - 39.0 °F 93% 30.11 in 10.0 mi Calm Calm - N/A   Clear
5:51 AM 41.0 °F - 39.0 °F 93% 30.12 in 10.0 mi Calm Calm - N/A   Clear
6:51 AM 41.0 °F 39.0 °F 39.0 °F 93% 30.13 in 10.0 mi East 3.5 mph - N/A   Clear
7:51 AM 39.9 °F - 37.9 °F 93% 30.13 in 10.0 mi Calm Calm - N/A   Clear
8:51 AM 44.1 °F 40.8 °F 42.1 °F 93% 30.12 in 10.0 mi ESE 5.8 mph - N/A   Clear
9:51 AM 51.1 °F - 45.0 °F 80% 30.11 in 10.0 mi Calm Calm - N/A   Clear
10:51 AM 60.1 °F - 46.9 °F 62% 30.09 in 10.0 mi Calm Calm - N/A   Clear
11:51 AM 68.0 °F - 48.0 °F 49% 30.06 in 10.0 mi Calm Calm - N/A   Clear
12:51 PM 71.1 °F - 45.0 °F 39% 30.03 in 10.0 mi Variable 4.6 mph - N/A   Clear
1:51 PM 73.9 °F - 44.1 °F 34% 29.99 in 10.0 mi SW 10.4 mph - N/A   Clear
2:51 PM 75.9 °F - 41.0 °F 29% 29.96 in 10.0 mi SSW 5.8 mph - N/A   Clear
3:51 PM 75.9 °F - 41.0 °F 29% 29.93 in 10.0 mi South 10.4 mph - N/A   Clear
4:51 PM 75.9 °F - 43.0 °F 31% 29.91 in 10.0 mi SSW 6.9 mph - N/A   Clear
5:51 PM 73.0 °F - 45.0 °F 37% 29.90 in 10.0 mi SSE 5.8 mph - N/A   Scattered Clouds
6:51 PM 71.1 °F - 46.0 °F 41% 29.89 in 10.0 mi Calm Calm - N/A   Partly Cloudy
7:51 PM 68.0 °F - 46.9 °F 47% 29.87 in 10.0 mi South 4.6 mph - N/A   Clear
8:51 PM 64.0 °F - 48.9 °F 58% 29.87 in 10.0 mi Calm Calm - N/A   Clear
9:51 PM 62.1 °F - 51.1 °F 67% 29.87 in 10.0 mi SSW 3.5 mph - N/A   Overcast
10:51 PM 66.0 °F - 53.1 °F 63% 29.86 in 10.0 mi SSW 4.6 mph - N/A   Overcast
11:51 PM 66.0 °F - 53.1 °F 63% 29.83 in 10.0 mi SSW 4.6 mph - N/A   Partly Cloudy